Voltar ao catálogo

CZ-6A DEB

AtivoPO
NORAD 60797·DEBRIS·🇨🇳 China

Lançado Aug 6, 2024 de Taiyuan Satellite Launch Center

Loading…

Próximas Passagens (próximas 24 horas)

TLE

AtualizadoSource: Space-Track

Época: Sep 14, 2026, 22:55 UTC

1 60797U 24140FY  26257.95492262  .00001099  00000-0  30101-3 0  9998
2 60797  88.8548 247.8621 0099658 280.1537  78.8437 14.43632653110089

Acompanhe CZ-6A DEB em tempo real com AllMySat

Download on the App Store